This demonstration page uses our WeatherBlox Daily Observations layout. Learn more.

Left ArrowRight Arrow

41.55636, -103.73856

Hourly Observations for February 24, 2018

Temp ( °F °C ) Dew Point ( °F °C ) Humidity (%) Winds ( mph kmh ) Pressure ( in mb ) Visibility ( mi km ) Precip ( " mm )
12:53 am 00:53 Cloudy with Light Snow 21 -6.1 18 -7.8 88 88 E 8 13 30.04 1017 4 6 N/A
1:02 am 01:02 Cloudy with Light Snow 21 -6 18 -8 86 86 ESE 8 13 30.15 1021 3 5 N/A
1:43 am 01:43 Cloudy with Mist and Fog 20 -6.7 17 -8.3 89 89 E 9 15 30.12 1020 6 10 N/A
1:53 am 01:53 Cloudy with Mist and Fog 20 -6.7 18 -7.8 92 92 E 8 13 30.00 1016 6 10 N/A
2:26 am 02:26 Cloudy with Mist and Fog 19 -7 18 -8 93 93 ESE 12 19 30.06 1018 6 10 N/A
2:50 am 02:50 Cloudy with Light Snow 19 -7 18 -8 93 93 SE 8 13 30.06 1018 3 4 N/A
2:59 am 02:59 Mostly Cloudy with Light Snow 20 -6.7 18 -7.8 92 92 SE 7 11 30.06 1018 1 2 N/A
3:04 am 03:04 Mostly Cloudy with Light Snow 20 -6.7 18 -7.8 92 92 SE 6 9 30.06 1018 1 1 0.01 0.25
3:25 am 03:25 Cloudy with Light Snow 20 -6.7 18 -7.8 92 92 SE 7 11 30.06 1018 2 3 0.02 0.51
3:32 am 03:32 Cloudy with Light Snow 19 -7 18 -8 93 93 SE 7 11 30.06 1018 3 4 N/A
3:44 am 03:44 Cloudy with Mist and Fog 19 -7 18 -8 93 93 SE 8 13 30.06 1018 4 6 N/A
3:53 am 03:53 Cloudy with Mist and Fog 20 -6.7 18 -7.8 92 92 SE 7 11 29.93 1014 4 6 0.02 0.51
4:53 am 04:53 Cloudy with Mist and Fog 19 -7.2 17 -8.3 92 92 E 7 11 29.91 1013 5 8 N/A
5:53 am 05:53 Clear with Mist and Fog 16 -8.9 15 -9.4 96 96 N N/A 29.93 1013 4 6 N/A
6:07 am 06:07 Clear with Mist and Fog 17 -8.3 15 -9.4 92 92 W 3 6 30.00 1016 2 3 N/A
6:13 am 06:13 Clear with Mist and Fog 15 -9.4 14 -10 95 95 W 3 6 30.03 1017 1 1 N/A
6:29 am 06:29 Clear with Mist and Fog 14 -10 12 -11.1 92 92 WNW 8 13 30.03 1017 3 4 N/A
6:36 am 06:36 Clear 14 -10 10 -12 85 85 WNW 7 11 30.03 1017 7 11 N/A
6:53 am 06:53 Sunny with Mist and Fog 15 -9.4 12 -11.1 88 88 NW 7 11 29.93 1013 6 10 N/A
7:53 am 07:53 Sunny with Mist and Fog 16 -8.9 14 -10 92 92 WNW 13 20 29.93 1014 3 5 N/A
8:53 am 08:53 Sunny 20 -6.7 12 -11.1 71 71 WNW 12 19 29.91 1013 10 16 N/A
9:53 am 09:53 Hazy 26 -3.3 9 -12.8 48 48 W 30 48 29.86 1011 6 10 N/A
10:53 am 10:53 Sunny 28 -2.2 10 -12.2 47 47 W 26 43 29.85 1011 10 16 N/A
11:53 am 11:53 Sunny 30 -1.1 11 -11.7 45 45 WNW 28 44 29.83 1010 9 14 N/A
12:53 pm 12:53 Sunny 31 -0.6 12 -11.1 45 45 WNW 31 50 29.84 1010 10 16 N/A
1:53 pm 13:53 Mostly Sunny 31 -0.6 11 -11.7 43 43 WNW 28 44 29.83 1010 10 16 N/A
2:53 pm 14:53 Cloudy 32 undefined 12 -11.1 43 43 WNW 22 35 29.84 1011 10 16 N/A
3:53 pm 15:53 Sunny 32 undefined 11 -11.7 41 41 WNW 17 28 29.85 1011 10 16 N/A
4:53 pm 16:53 Sunny 31 -0.6 10 -12.2 42 42 W 22 35 29.85 1011 10 16 N/A
5:53 pm 17:53 Clear 28 -2.2 10 -12.2 47 47 WNW 21 33 29.89 1012 10 16 N/A
6:53 pm 18:53 Clear 26 -3.3 12 -11.1 55 55 W 13 20 29.92 1013 10 16 N/A
7:53 pm 19:53 Clear 25 -3.9 13 -10.6 60 60 W 15 24 29.91 1013 10 16 N/A
8:53 pm 20:53 Clear 26 -3.3 13 -10.6 57 57 W 15 24 29.91 1013 10 16 N/A
9:53 pm 21:53 Clear 25 -3.9 12 -11.1 58 58 WNW 10 17 29.91 1013 10 16 N/A
10:53 pm 22:53 Clear 27 -2.8 12 -11.1 53 53 W 14 22 29.88 1012 10 16 N/A
11:53 pm 23:53 Clear 29 -1.7 13 -10.6 51 51 W 10 17 29.88 1012 10 16 N/A

Powered by AerisWeather